When you browse on this site, cookies collect data to enhance your experience and personalize the content and advertising you see.
Visit our Privacy Policy to learn more. By continuing to use the site, you agree to this use of cookies and data.
  • In Latvia
  • List of Countries
  • For 7 days
  • Water Temperature
  • Satellite Maps
  • Weather Map
  • Weather Widgets
  • user-avatar
    Login

    Hourly Weather Krzyzowka

    Today, 20 June, Thursday

    Time Temperature Precipitation Wind Pressure Humidity
    00:00 +19°C° 0 mm 2 mps 735 mmHg 87%
    01:00 +19°C° 0 mm 2 mps 735 mmHg 87%
    02:00 +18°C° 0 mm 2 mps 735 mmHg 87%
    03:00 +18°C° 0 mm 2 mps 735 mmHg 88%
    04:00 +18°C° 0 mm 2 mps 735 mmHg 88%
    05:00 +18°C° 0 mm 2 mps 735 mmHg 89%
    06:00 +20°C° 0 mm 2 mps 735 mmHg 84%
    07:00 +21°C° 0 mm 2 mps 735 mmHg 80%
    08:00 +24°C° 0 mm 2 mps 736 mmHg 76%
    09:00 +25°C° 0.4 mm 2 mps 736 mmHg 71%
    10:00 +27°C° 0.4 mm 2 mps 736 mmHg 66%
    11:00 +28°C° 0.4 mm 2 mps 736 mmHg 62%
    12:00 +28°C° 0.1 mm 2 mps 736 mmHg 58%
    13:00 +29°C° 0.1 mm 2 mps 736 mmHg 55%
    14:00 +30°C° 0.1 mm 2 mps 735 mmHg 51%
    15:00 +30°C° 0.1 mm 2 mps 735 mmHg 53%
    16:00 +30°C° 0.1 mm 2 mps 735 mmHg 55%
    17:00 +29°C° 0.1 mm 2 mps 735 mmHg 57%
    18:00 +28°C° 0.3 mm 1 mps 735 mmHg 65%
    19:00 +26°C° 0.3 mm 1 mps 735 mmHg 72%
    20:00 +24°C° 0.3 mm 1 mps 735 mmHg 80%
    21:00 +23°C° 0 mm 1 mps 735 mmHg 81%
    22:00 +22°C° 0 mm 1 mps 735 mmHg 83%
    23:00 +21°C° 0 mm 1 mps 735 mmHg 84%

    Tomorrow, 21 June, Friday

    Time Temperature Precipitation Wind Pressure Humidity
    00:00 +21°C° 0 mm 1 mps 735 mmHg 84%
    01:00 +19°C° 0 mm 2 mps 735 mmHg 84%
    02:00 +19°C° 0 mm 2 mps 735 mmHg 84%
    03:00 +20°C° 0 mm 1 mps 735 mmHg 85%
    04:00 +20°C° 0 mm 1 mps 735 mmHg 86%
    05:00 +20°C° 0 mm 1 mps 735 mmHg 86%
    06:00 +21°C° 0 mm 1 mps 736 mmHg 83%
    07:00 +23°C° 0 mm 1 mps 736 mmHg 80%
    08:00 +24°C° 0 mm 1 mps 736 mmHg 77%
    09:00 +25°C° 0.3 mm 1 mps 736 mmHg 74%
    10:00 +26°C° 0.3 mm 1 mps 736 mmHg 72%
    11:00 +27°C° 0.3 mm 1 mps 736 mmHg 69%
    12:00 +27°C° 0.2 mm 1 mps 736 mmHg 66%
    13:00 +26°C° 0.2 mm 0 mps 736 mmHg 63%
    14:00 +27°C° 0.2 mm 0 mps 736 mmHg 59%
    15:00 +28°C° 1.1 mm 1 mps 736 mmHg 65%
    16:00 +26°C° 1.1 mm 2 mps 736 mmHg 71%
    17:00 +25°C° 1.1 mm 2 mps 736 mmHg 77%
    18:00 +24°C° 0.3 mm 2 mps 736 mmHg 81%
    19:00 +23°C° 0.3 mm 2 mps 736 mmHg 84%
    20:00 +21°C° 0.3 mm 2 mps 736 mmHg 87%
    21:00 +22°C° 0.7 mm 1 mps 736 mmHg 88%
    22:00 +21°C° 0.7 mm 1 mps 736 mmHg 89%
    23:00 +21°C° 0.7 mm 1 mps 737 mmHg 90%

    Day after tomorrow, 22 June, Saturday

    Time Temperature Precipitation Wind Pressure Humidity
    00:00 +21°C° 0.1 mm 1 mps 737 mmHg 91%
    01:00 +20°C° 0.1 mm 1 mps 737 mmHg 91%
    02:00 +19°C° 0.1 mm 2 mps 737 mmHg 91%
    03:00 +19°C° 0.2 mm 2 mps 737 mmHg 93%
    04:00 +18°C° 0.2 mm 2 mps 737 mmHg 94%
    05:00 +18°C° 0.2 mm 2 mps 737 mmHg 96%
    06:00 +19°C° 0.4 mm 2 mps 737 mmHg 95%
    07:00 +20°C° 0.4 mm 2 mps 738 mmHg 93%
    08:00 +20°C° 0.4 mm 3 mps 738 mmHg 92%
    09:00 +21°C° 0.2 mm 3 mps 738 mmHg 87%
    10:00 +22°C° 0.2 mm 3 mps 738 mmHg 83%
    11:00 +25°C° 0.2 mm 3 mps 738 mmHg 79%
    12:00 +25°C° 1.1 mm 3 mps 738 mmHg 79%
    13:00 +25°C° 1.1 mm 4 mps 738 mmHg 80%
    14:00 +25°C° 1.1 mm 4 mps 738 mmHg 81%
    15:00 +25°C° 1.1 mm 4 mps 738 mmHg 82%
    16:00 +25°C° 1.1 mm 4 mps 738 mmHg 83%
    17:00 +23°C° 1.1 mm 4 mps 738 mmHg 84%
    18:00 +22°C° 1.1 mm 3 mps 738 mmHg 87%
    19:00 +22°C° 1.1 mm 3 mps 738 mmHg 90%
    20:00 +21°C° 1.1 mm 3 mps 738 mmHg 93%
    21:00 +20°C° 0.3 mm 2 mps 738 mmHg 94%
    22:00 +19°C° 0.3 mm 2 mps 738 mmHg 96%
    23:00 +18°C° 0.3 mm 2 mps 737 mmHg 97%

    23 June, Sunday

    Time Temperature Precipitation Wind Pressure Humidity
    00:00 +18°C° 0.1 mm 2 mps 737 mmHg 97%
    01:00 +18°C° 0.1 mm 2 mps 737 mmHg 98%
    02:00 +18°C° 0.1 mm 2 mps 737 mmHg 98%
    03:00 +18°C° 0.4 mm 2 mps 737 mmHg 98%
    04:00 +18°C° 0.4 mm 2 mps 737 mmHg 98%
    05:00 +19°C° 0.4 mm 1 mps 737 mmHg 98%
    06:00 +19°C° 0 mm 2 mps 738 mmHg 97%
    07:00 +19°C° 0 mm 2 mps 738 mmHg 96%
    08:00 +20°C° 0 mm 2 mps 738 mmHg 95%
    09:00 +20°C° 0 mm 2 mps 738 mmHg 94%
    10:00 +20°C° 0 mm 3 mps 738 mmHg 93%
    11:00 +20°C° 0 mm 3 mps 738 mmHg 93%
    12:00 +21°C° 0.1 mm 3 mps 739 mmHg 91%
    13:00 +21°C° 0.1 mm 3 mps 739 mmHg 90%
    14:00 +21°C° 0.1 mm 3 mps 739 mmHg 88%
    15:00 +22°C° 0.1 mm 3 mps 739 mmHg 88%
    16:00 +22°C° 0.1 mm 3 mps 739 mmHg 88%
    17:00 +22°C° 0.1 mm 3 mps 739 mmHg 88%
    18:00 +22°C° 0.4 mm 3 mps 739 mmHg 90%
    19:00 +21°C° 0.4 mm 3 mps 739 mmHg 91%
    20:00 +21°C° 0.4 mm 3 mps 739 mmHg 93%
    21:00 +20°C° 0 mm 3 mps 739 mmHg 94%
    22:00 +19°C° 0 mm 3 mps 739 mmHg 96%
    23:00 +18°C° 0 mm 3 mps 740 mmHg 97%

    24 June, Monday

    Time Temperature Precipitation Wind Pressure Humidity
    00:00 +18°C° 0 mm 3 mps 740 mmHg 97%
    01:00 +18°C° 0 mm 3 mps 740 mmHg 97%
    02:00 +17°C° 0 mm 3 mps 740 mmHg 98%
    03:00 +17°C° 0 mm 2 mps 740 mmHg 97%
    04:00 +17°C° 0 mm 2 mps 740 mmHg 97%
    05:00 +17°C° 0 mm 2 mps 740 mmHg 97%
    06:00 +18°C° 0 mm 2 mps 740 mmHg 96%
    07:00 +18°C° 0 mm 2 mps 741 mmHg 96%
    08:00 +18°C° 0 mm 2 mps 741 mmHg 95%
    09:00 +19°C° 0 mm 2 mps 741 mmHg 93%
    10:00 +19°C° 0 mm 2 mps 741 mmHg 91%
    11:00 +20°C° 0 mm 2 mps 742 mmHg 90%
    12:00 +21°C° 0 mm 3 mps 742 mmHg 88%
    13:00 +22°C° 0 mm 3 mps 742 mmHg 85%
    14:00 +22°C° 0 mm 3 mps 742 mmHg 83%
    15:00 +24°C° 0.1 mm 3 mps 742 mmHg 83%
    16:00 +24°C° 0.1 mm 3 mps 742 mmHg 83%
    17:00 +24°C° 0.1 mm 3 mps 742 mmHg 83%
    18:00 +24°C° 0.2 mm 3 mps 742 mmHg 85%
    19:00 +22°C° 0.2 mm 3 mps 742 mmHg 88%
    20:00 +21°C° 0.2 mm 3 mps 742 mmHg 91%
    21:00 +20°C° 0 mm 3 mps 742 mmHg 93%
    22:00 +20°C° 0 mm 2 mps 743 mmHg 95%
    23:00 +19°C° 0 mm 2 mps 743 mmHg 97%

    25 June, Tuesday

    Time Temperature Precipitation Wind Pressure Humidity
    00:00 +19°C° 0 mm 2 mps 743 mmHg 97%
    01:00 +19°C° 0 mm 2 mps 743 mmHg 98%
    02:00 +18°C° 0 mm 2 mps 743 mmHg 98%
    03:00 +18°C° 0 mm 2 mps 743 mmHg 98%
    04:00 +18°C° 0 mm 2 mps 743 mmHg 98%
    05:00 +18°C° 0 mm 2 mps 743 mmHg 97%
    06:00 +18°C° 0 mm 2 mps 744 mmHg 96%
    07:00 +18°C° 0 mm 2 mps 744 mmHg 96%
    08:00 +18°C° 0 mm 2 mps 744 mmHg 95%
    09:00 +19°C° 0 mm 2 mps 744 mmHg 93%
    10:00 +19°C° 0 mm 2 mps 745 mmHg 91%
    11:00 +20°C° 0 mm 2 mps 745 mmHg 90%
    12:00 +20°C° 0 mm 2 mps 745 mmHg 88%
    13:00 +21°C° 0 mm 2 mps 745 mmHg 86%
    14:00 +21°C° 0 mm 2 mps 745 mmHg 84%
    15:00 +23°C° 0 mm 2 mps 745 mmHg 83%
    16:00 +23°C° 0 mm 2 mps 744 mmHg 83%
    17:00 +23°C° 0 mm 2 mps 744 mmHg 83%
    18:00 +23°C° 0.1 mm 2 mps 744 mmHg 85%
    19:00 +21°C° 0.1 mm 2 mps 744 mmHg 87%
    20:00 +22°C° 0.1 mm 1 mps 745 mmHg 89%
    21:00 +20°C° 0.1 mm 2 mps 745 mmHg 91%
    22:00 +19°C° 0.1 mm 2 mps 745 mmHg 93%
    23:00 +19°C° 0.1 mm 2 mps 745 mmHg 95%
    Show more